Regional Weather Roundup
Issued by NWS

Home | Current Version | Previous Version | Graphics & Text | Print | Product List | Glossary On
Versions: 1 2 3 4 5 6 7 8 9 10 11 12 13 14 15 16 17 18 19 20 21 22 23 24 25 26 27 28 29 30 31 32 33 34 35 36 37 38 39 40 41 42 43 44 45 46 47 48 49 50
000
ASUS45 KABQ 201801
RWRNM
NEW MEXICO REGIONAL WEATHER ROUNDUP
NATIONAL WEATHER SERVICE ALBUQUERQUE NM
1100 AM MST TUE FEB 20 2018

NOTE: "FAIR" MEANS FEW OR NO CLOUDS BELOW 12,000 FEET AGL WITH NO
       SIGNIFICANT WEATHER OR OBSTRUCTIONS TO VISION.

      THIS PRODUCT IS RELEASED AS TWO VERSIONS.  ONE VERSION NEAR
      THE TOP OF THE HOUR CONTAINING PRELIMINARY DATA FROM ALBUQUERQUE
      AND OTHER STATIONS.  A FINAL VERSION WITH ADDITIONAL DATA IS
      ISSUED ABOUT 10 MINUTES AFTER THE HOUR.

NMZ501-503-504-510>518-201900-
NORTHWEST PLATEAU/NORTHCENTRAL MOUNTAINS

CITY           SKY/WX    TMP DP  RH WIND       PRES   REMARKS
FARMINGTON     FAIR      28  12  51 SW3       29.98R
6HR MIN TEMP:   8; 6HR MAX TEMP:  28;

LOS ALAMOS     CLOUDY    26  10  48 E3        29.93R
SANTA FE       CLOUDY    33  16  49 SW16G23   29.93S WCI  23
6HR MIN TEMP:  25; 6HR MAX TEMP:  33;

TAOS           CLOUDY    28  12  51 W17G25    29.94S WCI  16
ANGEL FIRE     LGT SNOW  19   9  65 SW14      29.89R WCI   5

$$
NMZ402-403-502-505>509-201900-
WESTCENTRAL MOUNTAINS/SOUTHWEST MOUNTAINS

CITY           SKY/WX    TMP DP  RH WIND       PRES   REMARKS
GALLUP         PTSUNNY   26  13  57 SW12      29.97R WCI  16
6HR MIN TEMP:  15; 6HR MAX TEMP:  26;

GRANTS         FLURRIES  25  19  77 SE5       30.00S WCI  19
SILVER CITY    PTSUNNY   41  32  70 NW20      29.99R

$$
NMZ407-409-411-412-201900-
SOUTHERN DESERTS

CITY           SKY/WX    TMP DP  RH WIND       PRES   REMARKS
DEMING         PTSUNNY   50  36  58 W14G21    29.98F
6HR MIN TEMP:  40; 6HR MAX TEMP:  50; 6HR PCP: TRACE;

LAS CRUCES     CLOUDY    55  34  45 W7        29.99S
ALAMOGORDO     CLOUDY    54  30  40 W18G30    29.99F
T OR C         CLOUDY    42  26  53 N9        29.97R
6HR MIN TEMP:  38; 6HR MAX TEMP:  46;


$$
NMZ519>523-201900-
CENTRAL VALLEYS/CENTRAL HIGHLANDS

CITY           SKY/WX    TMP DP  RH WIND       PRES   REMARKS
ALBUQUERQUE    PTSUNNY   34  15  46 W8        30.00S WCI  27
6HR MIN TEMP:  29; 6HR MAX TEMP:  34; 6HR PCP: TRACE;

DOUBLE EAGLE   PTSUNNY   34  12  40 W9G16     29.99S WCI  26
MORIARTY ARPT  CLOUDY    32  17  53 NW12      29.96S WCI  23
6HR MIN TEMP:  26; 6HR MAX TEMP:  32;

CLINES CORNERS CLOUDY    27  11  51 NW17G25   29.93R WCI  14
6HR MIN TEMP:  20; 6HR MAX TEMP:  28;

BELEN          CLOUDY    36  15  42 NW6       30.01S WCI  31
6HR MIN TEMP:  31; 6HR MAX TEMP:  36;

SOCORRO        FLURRIES  36  23  58 NW7       30.01S WCI  30
6HR MIN TEMP:  32; 6HR MAX TEMP:  36;


$$
NMZ524>526-539-540-201900-
SOUTHCENTRAL MOUNTAINS

CITY           SKY/WX    TMP DP  RH WIND       PRES   REMARKS
RUIDOSO        NOT AVBL

$$
NMZ527>531-201900-
NORTHEAST HIGHLANDS/NORTHEAST PLAINS

CITY           SKY/WX    TMP DP  RH WIND       PRES   REMARKS
LAS VEGAS      FAIR      38  14  37 SW26G40   29.86R WCI  26
6HR MIN TEMP:  28; 6HR MAX TEMP:  38;

RATON          PTSUNNY   42   5  21 W36G46    29.83S
6HR MIN TEMP:  26; 6HR MAX TEMP:  43;

CLAYTON        FAIR      27  11  51 NE12      29.94R WCI  17
6HR MIN TEMP:  15; 6HR MAX TEMP:  27;


$$
NMZ532>537-201900-
EASTCENTRAL PLAINS

CITY           SKY/WX    TMP DP  RH WIND       PRES   REMARKS
SANTA ROSA     CLOUDY    43  16  34 W10       29.93S
TUCUMCARI      FAIR      37  18  46 NE9       29.96S WCI  30
6HR MIN TEMP:  26; 6HR MAX TEMP:  44;

CANNON AFB     FAIR      47  27  46 NE7       29.97R
6HR MIN TEMP:  36; 6HR MAX TEMP:  47;

CLOVIS AIRPORT NOT AVBL

$$
NMZ028-029-538-201900-
SOUTHEAST PLAINS

CITY           SKY/WX    TMP DP  RH WIND       PRES   REMARKS
ROSWELL        FAIR      64  26  23 W13       29.88F
6HR MIN TEMP:  48; 6HR MAX TEMP:  64;

ARTESIA        FAIR      64  28  25 SW26G33   29.90F
CARLSBAD       FAIR      65  35  33 W21G26    29.91S
6HR MIN TEMP:  54; 6HR MAX TEMP:  65;

HOBBS          SUNNY     64  30  27 SW17G23   29.93S


$$




USA.gov is the U.S. government's official web portal to all federal, state and local government web resources and services.